Terminal Aerodrome Forecast
Issued by NWS

Home | Current Version | Previous Version | Text Only | Print | Product List | Glossary On
Versions: 1 2 3 4 5 6 7 8 9 10 11 12 13 14 15 16 17
715
FTUS43 KOAX 281720
TAFSNY
TAF
KSNY 281720Z 2818/2918 26007KT P6SM SCT100
     FM282200 18009KT P6SM VCTS BKN080CB
     FM290500 23005KT P6SM SCT080
     FM291600 33016G22KT P6SM SKC=

USA.gov is the U.S. government's official web portal to all federal, state and local government web resources and services.